Wind_Speed
38 39 39 39 40 41 41 39 39 39 40 40 39 38 38 38 38 38 39 39 39 39 39 38 38 38 38 37 36 36 35 36 36 36 36 36 37 38 40 41 42 42 42 41 40 40 39 39 40 40 41 41 41 41 40 40 40 40 40 38 37 37 37 38 37 36 36 35 35 36 36 37 38 37 37 37 37 38 39 39 37 36 35 36 37 37
39 39 39 39 39 39 39 39 38 38 39 40 39 39 39 40 41 40 39 38 37 36 35 35 35 35 36 36 36 36 37 38 37 37 36 37 38 40 41 42 42 41 41 40 40 39 39 39 40 40 39 40 40 40 39 39 39 39 39 38 37 37 37 37 37 36 36 36 36 36 36 36 35 35 35 35 35 36 37 38 37 36 35 35 35 36
39 39 39 37 37 37 38 38 38 38 39 39 40 41 43 43 42 39 37 36 35 34 34 34 35 37 38 40 40 39 39 38 37 36 37 38 39 40 41 41 41 41 40 40 39 39 39 39 39 39 38 39 40 40 40 40 39 39 39 38 38 37 36 36 36 36 36 36 36 35 33 31 30 30 30 30 31 32 33 34 34 35 35 35 35 35
37 37 38 37 36 36 37 38 39 39 40 42 44 46 46 43 39 35 34 34 35 36 37 39 40 40 40 40 40 39 38 37 37 37 38 39 40 41 41 41 41 40 40 39 39 39 39 39 38 38 39 40 41 41 40 40 39 39 38 38 37 36 36 35 35 35 36 37 35 32 29 27 28 28 29 28 28 28 28 28 29 30 33 34 34 34
35 35 36 36 36 36 37 37 39 41 43 46 47 45 42 37 34 33 34 35 37 39 40 40 39 38 37 37 38 38 37 37 37 38 39 40 41 41 41 41 40 39 39 38 38 38 38 37 37 38 40 42 42 41 40 39 38 37 37 36 36 36 35 35 35 36 37 36 33 29 27 27 28 29 29 29 29 29 28 27 26 26 28 30 32 33
34 34 35 36 36 36 37 38 40 43 46 46 43 39 35 32 32 34 37 39 40 40 39 37 36 35 36 37 37 38 38 38 39 40 40 41 41 40 40 39 38 37 37 37 37 37 36 36 38 40 41 42 41 40 39 38 38 37 36 36 36 35 35 35 35 36 37 35 31 28 27 28 29 29 29 29 30 30 30 29 27 26 25 26 28 30
36 35 35 37 37 37 37 41 44 45 46 43 37 33 32 33 36 38 40 39 38 37 35 35 35 36 37 38 39 39 39 39 40 41 41 40 39 38 37 36 35 35 35 35 35 35 36 37 39 41 42 41 41 40 39 38 37 37 37 37 36 36 35 35 36 37 37 34 30 28 28 29 29 29 28 28 29 30 31 30 29 28 26 24 25 26
38 38 37 37 36 36 37 40 43 44 41 36 33 33 36 39 40 39 38 36 34 34 34 35 37 38 40 40 39 39 39 39 40 40 39 38 37 35 34 34 35 36 35 34 34 35 37 39 41 42 42 41 41 40 39 38 37 37 37 36 36 36 36 36 36 36 35 32 29 28 29 29 29 28 28 29 29 29 29 29 28 28 27 25 24 25
39 40 39 37 34 34 36 38 38 36 33 32 33 36 39 40 39 37 35 34 33 33 35 36 39 41 41 40 39 38 38 38 38 38 37 35 34 34 35 35 35 34 33 33 34 36 39 41 42 42 43 42 41 39 37 37 36 35 35 34 34 34 34 33 33 33 32 29 28 28 29 28 28 28 29 30 30 30 28 27 27 27 26 25 24 23
40 40 39 36 32 31 34 36 35 33 32 33 36 36 36 35 34 33 33 34 35 36 37 39 40 40 40 39 38 37 37 37 37 37 36 35 35 36 35 32 31 32 33 35 37 39 40 42 43 43 43 42 40 38 36 35 34 33 32 32 32 32 31 30 30 30 29 28 28 28 27 27 28 29 30 31 31 30 29 28 28 27 26 24 23 22
39 38 34 30 28 30 32 33 34 35 36 38 38 37 34 32 32 33 35 37 39 40 40 39 38 37 37 37 36 36 36 36 37 38 38 37 35 33 31 30 31 33 35 37 39 41 42 43 44 43 42 39 37 36 35 34 33 32 31 31 30 30 29 29 29 28 28 28 27 26 26 27 29 30 31 31 31 30 29 28 28 28 27 24 23 22
35 31 26 26 28 30 31 33 34 36 37 37 37 36 36 34 34 34 36 39 41 41 40 38 37 36 35 35 36 37 37 38 40 39 37 33 30 28 29 31 34 36 38 40 42 43 44 44 43 40 38 36 35 34 33 33 32 32 31 31 30 29 28 28 28 28 28 27 26 26 27 29 30 31 31 31 31 30 29 28 28 28 27 25 24 23
28 26 27 29 30 30 31 32 33 34 36 35 36 36 37 37 37 36 36 38 39 38 36 35 36 36 36 36 37 38 39 39 37 33 30 28 28 29 32 35 38 40 41 42 44 45 45 43 40 37 35 34 34 34 33 33 32 32 31 31 30 29 29 29 29 28 27 26 26 27 30 31 31 31 31 31 30 30 30 30 29 28 27 26 25 24
27 29 31 32 32 32 33 35 35 36 37 37 36 36 36 37 37 36 36 36 35 35 34 35 36 37 37 38 38 36 34 30 27 26 28 30 32 34 35 38 39 40 42 42 44 45 43 40 37 35 34 34 35 35 35 34 33 33 32 31 30 30 29 29 28 27 26 27 28 30 31 32 32 31 31 31 31 32 32 32 31 30 29 28 27 26
29 31 32 33 34 36 37 38 39 39 39 38 36 35 36 36 35 34 34 34 35 35 35 36 37 38 37 36 33 28 24 23 25 28 32 36 37 37 36 37 39 42 43 42 43 42 39 36 34 34 34 34 35 36 35 34 34 33 32 32 31 31 30 28 28 28 29 31 32 32 32 32 32 31 31 31 31 32 33 33 33 32 31 31 30 29
31 32 33 36 38 39 40 40 39 39 38 36 35 35 34 34 34 34 34 35 35 34 34 35 36 37 35 30 24 20 20 24 29 33 37 39 39 37 35 35 38 40 41 40 38 37 36 34 33 33 33 35 36 36 35 34 34 33 32 32 31 31 30 29 30 31 33 34 33 33 32 32 31 31 32 32 32 32 33 33 33 32 32 32 32 31
32 34 36 38 40 42 41 40 38 36 35 35 34 33 33 33 34 34 34 34 34 34 34 32 32 31 30 27 23 22 24 28 32 36 39 40 39 37 34 33 35 37 37 36 36 35 35 35 33 33 33 35 36 36 35 34 33 32 31 30 30 31 32 33 34 35 34 34 33 32 31 31 31 32 33 33 33 33 33 33 32 32 32 32 32 32
34 36 38 40 42 41 40 38 35 34 34 34 34 34 34 34 35 35 35 35 34 35 35 34 31 28 26 27 28 29 29 31 34 37 38 39 39 36 33 32 33 35 36 35 35 35 35 34 32 32 34 37 37 36 35 33 31 30 30 31 32 34 35 35 35 35 34 34 33 31 30 31 32 33 34 33 33 32 32 31 31 30 30 30 31 31
36 38 39 40 40 39 37 35 33 33 33 34 34 35 35 36 36 36 36 36 36 36 34 32 29 27 29 31 34 35 33 32 33 36 37 38 37 35 32 31 32 34 35 35 35 35 35 33 32 33 35 37 37 36 33 30 29 31 33 35 36 36 36 36 35 35 34 33 32 31 31 32 33 34 33 32 31 30 29 29 28 29 29 30 30 29
39 39 38 37 36 35 35 34 34 34 34 36 37 38 38 39 38 38 38 36 34 31 28 27 29 32 34 36 36 35 33 33 33 35 36 37 37 35 32 31 33 36 36 37 36 35 32 31 32 34 36 36 35 32 29 29 31 34 37 38 38 37 36 35 34 33 32 31 31 31 33 34 34 33 31 30 29 28 28 28 28 29 30 30 30 29
40 39 37 35 34 34 34 35 36 37 37 38 40 40 40 39 37 35 33 31 30 30 31 33 35 36 36 35 35 34 33 33 33 34 35 36 35 33 33 33 34 36 37 35 32 30 29 31 34 36 36 34 30 28 30 33 36 38 38 37 36 35 35 33 33 33 32 31 31 33 35 35 33 31 30 30 30 29 29 28 28 28 29 30 30 30
37 37 36 35 35 36 37 39 40 39 39 39 38 38 37 36 35 34 33 34 34 35 35 35 36 37 36 35 34 35 34 34 34 35 35 35 36 36 34 32 31 31 31 30 29 30 31 34 35 35 34 33 34 35 36 37 37 36 35 33 33 32 33 33 34 33 31 31 32 35 36 34 32 31 31 32 32 30 29 29 28 28 29 29 30 30
36 35 35 35 35 36 37 38 39 39 39 39 38 37 37 37 37 37 37 37 37 37 37 37 38 38 36 35 35 35 34 34 34 34 34 35 35 35 33 30 28 28 30 31 31 32 33 34 33 33 34 34 36 36 36 34 32 31 31 32 33 34 34 35 33 31 31 33 36 37 36 34 32 32 32 32 31 31 30 30 30 30 30 30 30 30
33 34 34 35 35 35 36 38 39 39 39 39 38 37 37 37 36 35 35 36 37 37 37 37 36 35 34 32 33 33 32 31 31 31 32 33 34 34 32 30 29 30 32 32 32 32 33 33 33 33 34 35 34 33 32 31 31 31 31 33 35 35 34 32 31 31 33 36 37 37 35 34 33 32 32 31 31 31 31 31 31 31 30 31 31 31
31 31 31 32 33 35 36 37 37 37 37 36 35 35 34 34 34 35 35 35 35 34 33 34 33 32 32 31 30 30 30 28 28 29 31 32 33 32 31 29 30 32 33 33 32 31 33 33 34 34 33 34 34 33 32 32 31 31 32 33 34 32 30 29 30 33 35 36 36 36 35 33 32 31 31 31 31 31 31 31 31 31 31 31 31 32
27 28 30 32 34 35 35 34 34 33 32 32 33 33 33 34 34 34 33 32 31 31 32 33 33 33 32 30 29 29 29 28 28 28 30 31 32 32 32 29 29 31 32 33 32 32 32 33 33 33 33 34 35 34 33 32 31 31 31 30 28 27 28 31 33 35 36 36 35 34 33 32 31 30 30 30 30 30 30 31 31 32 32 32 31 32
27 30 33 35 35 34 33 32 31 30 30 29 29 29 31 32 33 32 31 30 30 31 32 32 32 32 31 29 29 29 29 29 28 28 29 29 30 31 30 29 29 30 32 33 33 33 32 32 32 33 34 34 35 34 33 31 31 30 28 27 27 28 31 34 35 35 34 34 33 32 31 30 30 30 30 30 30 30 31 31 32 32 31 31 31 32
32 35 36 36 35 33 32 31 30 30 29 28 28 28 28 29 30 31 31 32 32 32 31 31 31 30 30 29 29 30 30 30 29 28 28 28 28 28 29 30 30 30 32 33 34 33 32 31 32 32 33 33 33 32 32 31 30 28 27 28 31 33 34 34 33 33 32 32 31 31 30 30 30 30 30 31 31 31 32 32 31 31 30 30 31 32
36 37 36 35 34 33 33 32 32 31 30 29 29 28 28 27 28 30 32 33 33 33 31 31 31 31 31 31 32 31 31 29 28 27 27 27 27 29 30 30 30 31 32 33 34 33 31 29 29 29 30 31 31 31 31 31 30 30 31 34 35 35 34 32 31 31 30 30 31 31 31 31 32 32 32 32 32 32 31 30 29 29 29 30 31 33
38 38 37 36 36 35 34 34 33 32 31 30 30 29 28 28 29 31 32 33 32 32 32 31 31 32 31 32 31 31 30 28 27 26 27 27 28 30 31 30 30 31 31 31 31 31 30 28 27 27 28 30 30 31 31 31 32 33 35 36 36 34 32 30 30 30 31 32 33 33 33 33 33 33 32 31 30 28 27 26 26 26 27 29 31 33
39 38 38 37 37 36 35 34 33 32 32 31 31 30 29 29 30 31 32 31 32 32 32 32 32 32 32 31 29 28 28 29 29 29 29 29 30 31 31 31 31 32 31 30 27 26 27 29 29 28 29 30 31 31 31 31 32 34 35 35 33 31 30 30 31 32 34 34 35 34 33 32 31 29 27 25 24 23 22 21 22 24 26 28 31 33
38 37 36 37 37 36 34 33 32 32 32 32 31 31 30 30 30 31 31 31 32 32 32 32 33 33 33 32 30 29 30 32 33 33 32 31 31 31 32 32 32 32 32 30 29 28 26 29 31 32 32 31 31 31 31 31 32 33 32 31 29 29 31 33 35 36 37 36 33 31 28 25 24 22 21 20 19 18 17 17 19 21 23 26 29 31
37 37 36 37 36 35 33 32 32 32 32 32 31 31 31 31 30 30 31 32 32 32 32 32 33 33 34 33 33 32 33 34 34 33 32 32 33 32 32 33 33 33 32 31 31 31 29 31 33 35 34 32 30 29 30 31 31 30 28 27 28 31 35 39 40 39 36 32 28 25 22 21 20 19 18 17 15 14 14 15 16 18 21 24 27 29
37 37 37 36 35 34 33 32 32 32 31 31 31 31 31 31 31 31 32 33 33 32 32 32 32 33 34 33 33 32 33 34 35 34 34 34 35 35 34 34 34 34 34 32 31 31 31 33 33 33 33 32 31 30 29 29 28 26 25 27 31 36 40 42 40 36 31 27 24 22 21 20 19 18 17 14 13 12 13 14 16 18 21 24 26 28
37 37 36 35 33 33 32 32 32 32 31 31 31 31 31 31 32 33 33 33 33 32 32 32 32 33 34 34 34 34 34 36 36 35 35 36 37 37 36 36 35 34 34 34 33 31 31 32 32 32 31 31 31 30 29 27 25 25 28 32 37 40 41 39 35 30 27 24 23 22 22 21 20 18 16 14 14 13 14 15 17 19 22 25 27 30
36 36 34 33 32 32 32 32 32 32 32 31 31 32 32 32 33 33 33 33 33 33 32 33 33 33 33 33 34 35 37 37 36 35 35 36 37 38 37 37 37 36 36 36 35 33 32 32 31 31 31 30 30 29 28 27 28 30 34 37 40 40 38 34 30 27 26 25 24 24 23 22 21 19 17 15 14 15 15 17 18 20 22 25 29 32
34 33 33 32 32 32 32 32 32 32 32 32 33 33 34 34 34 34 34 34 34 33 33 33 33 33 33 33 33 35 36 37 36 35 34 34 35 37 38 38 37 37 37 36 35 34 32 31 30 29 29 28 28 28 29 31 32 34 36 39 40 38 34 29 26 25 25 25 25 25 24 23 22 20 17 15 14 14 15 16 18 20 22 25 29 33
32 32 32 32 32 32 32 32 32 33 33 33 34 35 35 35 35 35 34 34 34 34 33 33 33 33 33 33 33 34 35 35 35 33 32 31 31 33 35 36 37 36 36 36 35 33 32 29 29 28 28 28 29 30 32 33 33 34 36 37 36 34 30 27 25 24 24 25 25 24 23 22 21 18 16 13 12 11 12 13 15 18 21 24 28 33
32 32 32 32 32 32 32 32 32 33 33 34 35 35 35 35 35 34 34 33 33 33 33 33 33 33 34 34 34 34 34 34 33 31 30 29 29 30 32 34 35 36 36 35 33 31 30 28 28 28 29 30 31 32 33 32 32 33 35 35 33 30 27 25 24 24 23 24 25 25 24 21 18 16 13 10 9 8 7 8 9 11 14 18 23 29
32 32 32 32 32 33 32 33 33 34 34 35 35 35 35 35 34 33 33 33 33 33 32 32 33 34 34 35 34 34 33 32 31 30 28 27 28 29 31 32 34 35 34 32 29 28 29 30 31 31 30 31 31 31 31 31 31 31 31 32 33 31 27 24 23 22 22 23 24 25 23 20 16 13 10 8 6 5 5 4 4 4 5 8 13 20
32 32 32 32 33 34 33 33 34 34 34 34 34 34 34 34 33 33 33 33 33 32 33 33 34 35 35 36 35 34 33 32 30 29 28 27 28 29 30 30 31 31 30 28 29 31 33 33 32 31 30 29 28 28 28 28 28 28 28 30 31 31 27 23 21 21 22 22 22 21 20 16 13 10 9 8 7 7 6 5 4 2 2 4 7 12
32 33 33 33 33 33 33 34 34 34 34 33 33 33 33 33 33 33 33 33 32 32 33 34 35 36 37 37 35 34 32 31 30 28 27 27 28 29 28 27 27 27 27 29 32 34 34 31 29 27 26 26 26 26 27 27 26 26 27 29 30 30 27 22 19 20 22 21 19 17 15 13 11 11 11 12 12 11 9 7 5 2 1 3 6 10
32 33 34 34 34 34 34 34 34 33 33 32 32 32 33 32 32 32 32 33 33 33 35 36 36 37 37 37 36 33 32 31 29 28 27 28 28 28 27 25 25 26 29 32 34 33 30 27 25 23 23 22 22 23 24 25 26 26 27 28 28 29 30 25 21 19 20 18 16 13 12 12 12 14 16 16 16 15 13 11 8 4 1 2 6 9
32 33 33 34 34 34 34 34 33 32 32 32 33 33 33 33 33 33 33 33 33 34 36 36 36 36 35 34 34 33 33 32 30 28 28 28 28 27 26 25 26 29 31 31 30 28 25 23 21 19 18 17 17 18 20 23 25 27 27 26 26 26 27 25 23 21 19 16 13 12 12 13 15 18 19 20 20 19 17 15 12 8 4 2 4 8
32 33 33 34 34 33 34 34 33 33 33 33 33 33 33 33 33 33 32 33 34 35 36 36 35 34 32 31 32 33 32 32 30 29 29 30 28 26 26 27 29 31 30 28 24 21 19 18 17 15 13 13 13 15 18 21 24 27 27 25 24 22 21 20 19 19 17 15 13 13 14 17 19 21 22 23 23 23 22 20 18 15 11 7 4 5
32 33 33 34 34 33 33 33 33 33 32 32 33 34 34 33 33 33 33 34 34 35 35 35 33 31 31 32 32 32 32 31 30 30 31 31 29 27 27 29 30 30 28 23 18 14 12 12 12 11 11 12 13 15 18 20 23 25 26 24 22 21 19 17 16 15 14 13 13 14 17 20 22 23 25 26 26 26 25 24 24 22 19 15 11 7
33 33 33 34 33 33 34 34 33 32 32 32 33 34 34 34 34 34 34 34 34 34 34 33 32 32 31 31 31 31 30 29 29 30 32 31 29 28 28 30 31 28 22 16 12 9 9 8 8 9 10 12 14 16 18 20 21 22 22 21 20 19 18 16 14 12 11 12 14 17 20 22 24 25 26 26 27 28 28 28 27 26 24 22 18 14
33 33 33 33 34 34 34 33 33 32 32 33 34 34 33 33 33 33 34 34 34 33 33 32 32 32 31 31 30 29 28 27 28 30 31 30 28 28 29 31 29 23 15 10 7 6 6 7 7 8 10 11 13 16 18 19 20 20 19 18 17 16 15 13 12 11 12 14 17 20 22 24 25 26 26 27 28 29 30 30 30 29 27 26 23 20
33 33 33 34 34 34 34 33 33 33 33 34 35 35 34 34 33 33 33 33 33 32 32 32 32 32 31 30 29 27 26 26 28 30 29 28 27 28 30 30 26 20 13 8 7 6 5 6 7 8 8 9 11 15 18 20 20 18 16 15 14 13 12 12 13 14 16 18 21 23 24 25 25 26 27 28 29 30 30 31 31 31 30 28 26 24
33 33 33 33 33 34 34 34 33 33 34 35 35 36 36 35 34 34 33 33 32 32 31 31 31 30 29 28 27 26 26 27 29 29 27 25 26 27 28 26 23 18 14 11 9 7 6 6 6 7 7 8 10 14 18 21 21 18 15 12 10 10 11 14 16 18 20 22 24 25 25 26 26 27 28 29 30 31 31 32 32 32 31 30 29 27
33 33 34 33 33 34 34 34 34 34 35 35 35 35 36 36 35 35 34 33 33 32 31 31 29 28 26 25 26 26 26 27 28 26 25 23 24 25 24 22 19 17 17 16 14 12 11 10 10 9 8 8 9 12 17 21 22 19 14 10 8 10 14 17 20 22 24 25 26 27 27 28 28 29 30 31 31 32 32 32 33 33 32 31 31 29
Wind_Direction
298 299 300 301 301 301 301 301 301 301 300 300 299 298 298 296 295 295 297 299 301 302 302 303 303 302 300 297 295 292 291 290 290 291 291 292 293 294 294 295 296 296 297 296 295 295 295 296 297 298 298 298 297 296 296 296 295 293 292 293 292 291 289 289 290 292 292 292 291 290 289 286 285 283 282 282 281 280 278 276 274 272 269 266 263 261
298 299 299 300 300 300 300 301 301 300 299 298 297 297 296 296 296 296 298 300 301 301 301 302 302 300 298 295 294 293 293 293 294 294 294 294 294 294 295 295 296 295 295 294 294 294 294 295 296 297 298 298 298 298 297 296 295 294 293 293 292 290 288 289 291 292 292 292 290 289 287 285 283 282 281 280 279 279 277 275 273 270 268 265 262 260
299 299 299 300 299 298 298 300 301 300 298 297 295 295 294 294 295 296 298 299 300 300 300 301 302 301 300 299 299 298 298 297 296 295 294 294 294 294 294 295 295 294 294 294 293 293 294 294 295 296 297 298 298 298 297 296 294 293 293 293 292 290 289 290 291 292 292 291 290 289 288 287 287 286 284 282 281 279 278 276 273 268 265 262 260 259
297 297 299 299 299 297 297 299 300 300 299 297 294 293 293 294 295 296 297 298 299 300 301 303 304 304 304 303 302 301 300 297 295 294 293 293 294 294 294 294 294 294 293 293 293 293 292 292 293 295 297 298 298 297 296 294 293 292 292 291 290 289 288 289 290 291 290 289 289 291 292 292 293 292 291 289 286 283 282 281 276 268 261 258 257 255
294 295 297 298 298 297 297 299 300 300 299 296 294 293 293 293 294 295 296 297 299 301 303 306 307 306 305 303 301 300 298 296 294 294 294 294 294 294 294 294 293 293 293 292 292 291 290 291 293 295 297 298 298 297 295 294 293 291 290 289 288 287 287 288 289 289 288 287 287 289 292 294 295 295 294 292 289 287 286 286 283 275 265 258 254 252
293 294 296 296 296 296 297 299 300 300 299 296 294 293 293 293 293 294 295 298 300 303 306 307 307 306 304 302 300 298 296 295 294 294 294 294 293 293 293 293 293 293 292 291 290 289 290 292 294 296 298 298 297 296 295 294 293 291 290 288 287 286 286 288 288 288 287 287 286 288 292 295 296 295 294 292 291 288 286 286 286 285 277 265 257 252
294 294 294 294 294 294 295 298 300 300 298 296 294 293 294 293 293 294 297 300 303 306 306 306 305 304 303 301 299 297 296 295 294 294 294 294 294 294 294 293 292 292 291 291 290 290 292 294 296 297 297 297 297 296 295 293 292 291 290 289 288 288 288 288 287 287 286 287 287 289 291 292 292 291 291 290 288 287 284 284 286 288 286 277 265 256
295 294 293 292 291 292 294 297 299 299 297 295 294 294 294 294 295 297 300 302 305 306 305 305 304 303 302 301 299 298 296 295 296 296 296 296 295 294 293 291 291 291 292 293 293 293 294 295 296 296 296 296 296 295 294 293 292 291 290 289 288 288 288 287 286 286 286 288 290 290 289 289 289 289 289 288 287 286 284 283 285 288 288 282 272 262
293 292 291 288 288 291 296 300 300 299 297 297 296 296 296 298 300 303 304 304 304 304 304 304 304 303 302 301 299 298 297 297 297 297 295 294 293 292 291 291 292 293 294 294 294 294 295 295 295 296 296 296 295 295 294 293 292 291 290 289 288 288 288 287 287 287 290 292 291 288 287 288 289 290 290 290 289 287 285 283 285 288 288 283 277 269
290 289 287 287 289 295 302 304 304 304 303 303 301 300 301 305 308 309 308 306 304 304 304 304 304 303 302 301 300 299 299 299 298 296 293 291 290 290 292 294 295 296 296 295 295 295 295 295 295 296 296 296 296 295 295 294 293 292 291 290 290 290 290 289 288 289 291 290 287 284 285 287 289 292 293 293 291 289 286 284 285 288 288 285 279 274
287 287 288 293 300 306 308 308 308 309 309 308 307 306 307 309 310 309 307 306 305 305 305 304 303 302 301 300 300 299 298 297 296 294 292 291 292 294 296 297 297 296 295 295 295 295 295 296 297 298 298 298 298 298 297 296 295 295 294 294 294 293 291 290 289 288 286 284 283 284 287 290 293 295 296 294 292 289 287 285 286 288 289 288 284 277
288 292 299 306 311 313 312 311 311 311 311 310 308 306 305 305 305 305 304 304 304 304 304 304 303 302 300 299 299 298 297 294 293 292 293 295 298 300 300 299 298 296 296 296 296 296 297 299 299 300 300 301 301 301 300 298 297 297 296 295 295 294 293 291 289 286 284 284 287 292 295 296 296 297 296 294 291 290 288 288 289 290 291 291 286 278
299 307 313 314 314 313 313 313 313 312 310 308 305 303 302 302 302 302 302 301 301 302 303 302 302 301 301 300 299 297 295 293 293 294 297 299 300 301 300 299 298 297 297 297 298 299 300 301 302 302 304 304 305 304 302 300 299 299 298 297 296 295 293 291 288 286 287 290 294 297 297 296 296 295 294 292 290 289 289 290 291 293 294 292 286 279
315 316 315 313 312 312 312 312 311 309 307 305 303 301 300 301 301 301 300 299 300 300 300 300 300 300 300 300 299 297 294 295 298 301 301 300 299 299 299 299 298 297 297 297 298 300 302 303 304 305 307 309 309 308 306 305 303 302 300 299 297 295 292 289 289 291 294 295 296 296 295 294 294 294 293 292 291 290 289 290 291 293 293 291 287 282
317 315 314 312 311 312 312 311 310 307 304 303 302 301 300 301 301 301 300 300 299 299 299 299 299 300 300 300 299 298 298 303 305 305 302 300 299 299 300 298 297 297 297 297 298 300 303 303 303 304 308 310 311 310 308 306 305 302 300 297 295 293 292 292 293 295 296 296 296 294 293 292 291 291 290 290 290 289 287 287 287 288 288 287 284 280
314 313 312 311 311 311 311 309 307 305 303 301 301 300 300 300 300 300 299 298 298 297 297 298 299 300 301 300 300 302 307 308 307 304 302 300 300 300 300 298 297 296 297 296 296 298 301 301 301 303 306 308 309 308 306 303 301 300 298 295 293 292 292 293 293 294 294 294 293 291 290 289 288 287 286 287 287 286 284 283 282 282 283 282 281 278
313 312 311 310 309 309 308 307 305 302 300 300 299 298 297 297 297 298 297 295 294 294 294 293 293 296 299 301 303 306 310 311 308 305 302 300 299 300 300 298 296 295 295 295 295 296 297 298 299 300 303 305 306 305 302 299 298 297 296 294 293 292 292 292 292 292 292 291 289 288 287 287 287 287 287 287 286 285 283 281 280 279 280 280 279 277
312 311 310 309 307 306 306 304 302 300 299 298 298 297 296 295 294 294 293 291 290 290 289 290 291 294 300 304 306 307 309 310 307 304 302 299 299 299 299 298 296 294 294 293 295 296 294 294 294 298 304 304 301 297 296 294 294 294 294 294 293 292 292 291 291 290 290 288 287 287 288 288 288 288 288 286 285 283 281 280 279 279 278 277 276 274
311 310 309 307 306 305 303 301 299 298 297 297 297 296 295 294 293 292 291 289 288 287 288 290 294 300 304 305 304 305 307 308 306 303 300 298 297 299 299 298 296 294 292 292 294 295 293 294 299 303 304 301 296 293 291 292 293 295 295 294 293 291 290 289 289 289 288 287 287 288 289 290 290 289 287 285 282 280 279 278 277 276 275 272 270 269
311 309 308 306 304 302 299 298 296 296 295 295 296 296 294 294 294 294 293 292 292 293 296 300 303 304 304 302 302 303 305 306 304 301 298 297 297 298 299 298 296 294 292 293 294 295 295 299 304 305 301 297 293 290 291 294 295 296 294 293 291 290 289 289 288 288 287 287 288 289 291 292 291 288 285 282 280 278 277 276 275 273 271 268 265 264
309 307 305 304 301 297 294 294 295 296 296 298 299 299 298 299 300 301 301 302 302 303 304 304 303 302 302 300 300 301 304 304 302 299 297 296 295 295 297 297 296 294 293 294 296 299 302 304 305 303 299 296 295 295 296 296 295 294 292 291 290 289 288 288 287 286 285 284 286 289 292 291 289 285 281 280 279 278 278 276 275 274 272 270 266 262
307 304 303 301 298 295 294 296 299 302 304 306 307 306 306 306 306 306 306 306 305 304 303 301 300 300 299 298 298 299 301 302 300 297 296 294 294 295 297 297 295 293 294 297 300 303 303 302 300 297 295 295 295 296 296 295 294 293 292 291 290 289 288 287 285 284 283 285 288 291 292 290 287 283 281 280 280 280 279 278 278 277 275 272 267 262
304 301 300 299 299 299 301 304 307 308 309 309 308 306 306 305 304 303 302 302 302 301 301 300 300 299 298 297 297 298 300 300 300 298 294 292 291 294 298 299 298 298 298 300 302 302 300 298 296 294 294 294 295 296 297 297 296 294 292 291 290 288 287 286 284 284 285 288 291 292 291 288 285 282 281 281 281 281 280 279 278 277 275 272 267 262
303 300 300 300 302 304 306 306 306 306 305 304 303 302 301 300 300 299 299 299 300 300 301 301 300 299 297 296 297 298 298 298 298 295 291 288 289 293 298 301 302 301 300 300 300 299 297 296 295 295 295 296 298 300 302 301 298 295 292 290 288 286 285 284 284 286 289 291 292 291 289 287 285 282 281 281 281 281 281 279 278 276 274 272 267 262
301 300 301 303 304 304 304 303 302 302 302 302 302 301 301 301 300 299 299 299 300 301 301 301 300 298 297 297 297 297 297 298 297 294 290 290 291 295 298 301 301 300 299 299 299 298 298 297 296 296 296 297 300 303 304 303 299 295 291 288 286 284 284 285 288 290 292 292 291 290 288 286 285 283 283 282 281 280 279 277 276 275 274 271 267 262
302 302 304 305 306 305 305 304 303 303 303 303 303 303 303 303 302 302 301 301 302 302 302 300 298 297 297 297 296 296 298 299 299 296 294 293 293 295 297 299 298 297 298 299 299 300 299 298 297 297 297 298 301 305 306 304 301 296 291 288 286 285 287 290 292 293 293 292 290 289 287 286 285 284 283 282 281 279 278 277 276 275 273 271 267 263
308 309 310 311 311 311 311 309 308 307 306 305 304 304 304 304 303 303 302 302 303 303 301 298 297 297 298 297 297 298 300 300 299 297 296 294 292 293 296 298 298 298 298 298 299 299 299 297 296 296 297 299 302 305 305 304 300 296 292 289 289 291 293 295 294 293 292 291 289 288 287 286 285 284 283 282 280 279 277 276 275 274 273 270 267 264
314 315 316 317 317 318 317 315 312 311 310 308 307 306 305 304 303 302 302 303 303 302 299 297 296 296 297 298 298 299 300 300 299 298 298 295 292 291 295 298 299 298 299 298 299 299 298 296 296 297 298 300 302 303 302 300 297 294 291 293 295 297 297 297 296 294 293 292 291 290 289 288 286 285 284 282 280 279 277 276 274 272 271 268 265 262
318 319 320 321 322 321 320 318 317 315 313 311 309 308 306 304 302 301 301 303 303 301 298 297 296 296 297 298 300 300 300 299 299 300 301 298 294 293 296 298 299 299 300 300 300 300 298 297 297 298 299 300 301 300 299 296 294 294 295 298 300 300 300 299 298 297 297 296 295 293 291 289 287 285 283 281 279 277 275 273 271 269 267 264 262 259
321 322 323 323 323 322 321 319 318 316 315 314 312 310 307 305 302 302 302 303 302 299 298 297 297 297 298 299 300 300 299 299 300 302 302 299 296 295 297 298 299 299 300 301 302 301 300 300 299 299 299 300 299 298 297 295 295 297 300 302 303 302 302 301 301 300 299 298 296 294 291 289 287 285 283 281 279 277 273 269 266 265 263 261 259 257
321 321 320 320 320 320 319 317 316 316 315 314 313 311 308 306 304 304 303 302 300 298 297 297 297 296 297 297 298 298 298 299 301 303 302 299 296 296 298 298 299 300 301 301 300 300 302 303 303 301 301 300 299 298 297 297 298 300 302 303 302 302 303 304 304 303 301 300 297 295 293 291 290 289 287 285 283 279 274 267 264 262 261 260 258 256
318 318 317 317 318 318 317 315 315 315 314 313 312 311 309 307 306 304 303 302 301 299 297 296 296 295 295 294 294 294 295 297 301 304 303 299 296 296 298 298 299 300 301 300 298 297 298 300 302 303 302 301 300 299 299 300 301 302 302 302 301 301 304 306 306 306 305 304 303 302 301 300 300 299 298 296 292 286 277 267 261 259 258 258 258 256
317 317 316 317 318 318 316 315 314 314 313 312 311 310 309 308 307 306 305 304 303 301 298 296 295 294 294 294 292 292 293 296 300 304 304 300 297 297 299 299 299 300 301 300 298 296 294 295 298 301 302 301 300 300 301 302 302 302 302 301 302 304 306 308 310 310 310 311 311 311 311 312 312 311 309 304 298 289 277 266 257 254 254 255 256 256
316 316 317 318 318 317 316 315 314 313 312 311 310 310 309 309 308 307 307 306 305 303 300 298 296 295 294 294 293 292 293 296 302 306 305 301 298 298 299 300 300 301 301 300 300 298 296 295 296 298 300 301 302 302 302 303 303 302 301 302 304 306 308 311 313 314 316 317 317 318 318 319 319 318 316 310 300 290 279 267 257 250 248 248 250 251
315 316 317 317 317 316 315 314 314 313 312 311 311 310 310 310 309 309 308 308 306 305 303 301 299 297 296 294 293 293 295 299 306 310 309 305 301 300 300 299 300 301 300 300 300 299 297 296 296 297 300 302 303 304 304 304 303 303 303 304 306 308 311 314 316 318 320 320 321 321 322 324 324 323 321 315 305 295 283 273 262 252 246 243 243 245
315 316 317 316 316 315 314 314 314 313 313 312 312 312 312 311 311 310 310 309 309 307 306 305 304 302 300 297 295 294 297 303 310 314 314 310 307 303 299 299 301 302 300 299 298 298 297 296 298 300 302 303 304 305 306 305 305 305 306 307 309 311 314 317 320 321 323 324 324 325 327 328 328 326 322 315 305 294 283 275 267 259 251 245 242 242
315 315 315 315 315 314 314 314 314 313 313 313 313 313 313 313 312 311 311 312 313 312 311 310 310 308 307 305 302 301 304 309 313 316 317 316 312 307 302 302 304 305 302 299 297 297 297 298 301 304 305 305 304 305 306 306 306 307 308 309 311 314 317 321 324 326 326 327 328 329 330 331 330 327 322 313 301 289 280 274 269 263 257 251 246 243
314 314 315 315 315 314 314 314 314 314 313 313 313 313 313 313 314 314 314 315 315 315 314 313 312 312 312 312 312 312 314 315 317 318 320 320 317 312 308 306 307 307 304 300 298 297 298 301 305 307 307 305 303 303 304 306 307 308 309 312 315 318 321 325 328 330 330 331 332 332 332 332 330 327 320 312 301 289 280 272 266 261 257 253 249 245
314 314 314 314 314 314 314 313 313 314 314 314 314 314 314 315 315 316 316 316 316 316 315 314 314 315 316 318 319 319 320 319 320 320 321 322 321 319 315 311 309 307 305 302 299 299 301 305 307 307 306 305 304 304 305 307 308 310 313 316 320 322 326 329 331 333 334 335 336 335 335 334 331 327 322 316 309 301 290 276 266 259 254 250 247 245
315 314 314 314 314 314 314 313 313 314 314 314 315 315 316 316 317 317 317 317 317 317 317 317 317 318 319 320 322 322 322 322 322 322 322 323 324 324 321 316 311 308 305 303 303 304 308 309 307 305 303 303 303 305 307 308 310 313 316 318 320 323 329 333 336 338 339 339 338 337 337 335 334 332 331 333 336 338 335 323 301 280 263 249 242 239
315 314 314 314 314 315 314 314 314 315 315 315 316 316 317 317 317 317 318 318 318 318 319 320 321 321 322 323 323 323 323 324 324 324 322 323 325 326 324 320 315 311 307 306 308 309 310 310 308 306 304 303 303 304 306 308 312 316 318 318 319 323 330 336 341 342 341 341 341 340 340 340 342 348 360 13 24 28 24 15 6 344 298 252 230 222
315 314 314 314 315 315 315 316 316 316 317 317 316 316 317 318 318 318 318 318 318 320 321 322 322 321 321 322 323 324 324 324 324 324 323 324 325 326 325 322 318 314 311 310 311 311 311 310 308 305 303 304 304 304 306 311 316 320 321 322 323 326 330 338 345 346 342 343 345 348 350 353 2 16 31 40 46 49 51 49 47 41 327 234 217 207
315 315 315 315 316 316 316 317 317 318 318 318 317 318 319 320 320 319 318 317 318 320 322 323 322 321 319 319 320 322 324 326 326 324 323 325 326 327 326 323 319 314 313 313 313 313 312 310 307 305 305 306 307 308 310 316 321 324 326 327 327 325 324 332 341 347 346 349 355 2 9 18 29 39 46 51 54 58 63 67 72 78 107 214 214 205
316 316 316 317 317 317 317 317 318 318 319 318 318 319 320 322 322 321 319 318 319 320 322 324 323 321 317 316 316 319 322 325 326 325 325 327 329 329 328 325 321 318 318 317 315 314 313 311 309 309 311 313 314 315 318 321 323 325 328 330 330 326 322 328 335 342 346 356 9 22 32 40 47 52 55 58 60 63 67 72 77 84 96 155 202 206
318 317 318 318 318 318 317 318 318 319 319 318 319 320 321 323 323 322 320 320 320 321 323 324 322 318 315 315 316 318 320 323 325 326 327 329 331 332 331 328 325 324 323 321 317 314 312 311 313 317 323 324 323 323 323 324 325 326 329 332 333 332 332 336 339 342 348 360 18 36 48 55 57 59 59 60 62 65 68 71 75 79 84 97 133 183
319 318 318 318 318 317 318 319 319 320 319 319 320 321 322 323 323 323 322 322 321 322 323 324 321 317 314 315 317 318 319 321 323 326 328 331 335 337 335 332 330 329 327 325 321 317 313 314 320 326 330 331 329 328 328 328 328 328 331 334 337 338 341 344 348 352 359 11 29 47 59 63 63 62 60 61 63 65 67 69 71 72 75 81 92 115
320 319 318 319 318 318 319 320 321 321 320 320 321 322 323 324 324 324 324 324 323 322 323 323 321 318 316 316 318 319 319 320 323 326 329 333 337 338 336 334 333 333 333 332 331 328 327 328 330 333 333 332 331 332 332 333 333 334 335 337 339 341 344 351 359 9 20 33 46 57 65 66 65 63 62 63 64 65 66 67 68 69 70 72 78 87
320 319 319 319 319 319 320 321 322 321 321 321 322 323 323 324 325 324 324 324 324 324 323 322 321 320 319 319 320 321 321 322 325 328 331 336 339 339 336 336 337 340 344 351 354 350 344 340 338 337 336 337 336 337 340 342 344 344 343 342 342 345 351 3 17 32 46 56 62 66 67 66 64 62 61 62 63 64 64 64 65 66 66 68 70 75
321 320 320 320 320 320 320 321 322 322 322 323 323 324 324 326 326 325 325 325 325 325 324 323 322 321 320 320 322 324 325 326 327 330 334 338 340 338 337 338 342 348 360 16 24 16 1 350 346 347 350 351 349 348 351 353 355 355 353 350 349 355 9 26 42 55 64 68 70 72 71 70 68 66 64 62 61 62 63 63 63 63 64 65 67 69
322 321 321 321 321 321 321 322 322 323 324 324 323 323 325 326 327 327 327 327 327 326 325 325 324 323 321 322 325 327 327 328 329 333 338 341 341 339 339 342 348 358 11 24 32 32 25 15 10 11 14 13 8 5 4 3 3 2 2 1 5 20 37 50 60 67 71 73 74 75 75 74 73 71 68 64 62 62 63 63 63 63 63 63 65 67
322 322 322 322 322 322 323 323 323 324 324 324 323 324 324 326 327 328 329 330 329 329 329 329 328 326 324 325 327 328 328 330 332 336 342 344 341 340 342 348 358 9 17 22 26 30 32 33 33 36 41 38 27 19 17 13 8 5 6 15 36 53 62 66 70 74 75 76 77 78 77 76 74 72 69 66 63 60 59 59 62 64 64 64 64 66
Height
1370 1368 1366 1365 1364 1361 1357 1357 1357 1355 1351 1350 1349 1348 1346 1345 1343 1342 1341 1340 1338 1337 1335 1333 1331 1330 1328 1327 1326 1325 1324 1323 1321 1320 1318 1317 1316 1315 1314 1313 1311 1310 1308 1307 1306 1304 1303 1302 1300 1299 1298 1296 1295 1293 1292 1291 1290 1288 1287 1286 1285 1285 1285 1284 1283 1282 1281 1280 1279 1278 1278 1277 1276 1275 1274 1274 1273 1272 1271 1270 1269 1269 1270 1271 1271 1272
1368 1366 1364 1363 1362 1359 1355 1354 1354 1354 1350 1348 1346 1345 1343 1342 1340 1339 1338 1337 1336 1334 1332 1330 1329 1328 1326 1325 1323 1322 1321 1320 1318 1317 1316 1315 1313 1312 1311 1309 1308 1307 1305 1304 1303 1301 1300 1298 1297 1296 1294 1293 1292 1290 1288 1288 1286 1285 1284 1283 1282 1282 1281 1281 1279 1278 1278 1277 1276 1275 1275 1274 1273 1272 1271 1270 1270 1269 1268 1267 1266 1266 1266 1267 1268 1268
1367 1363 1361 1361 1360 1358 1354 1352 1351 1351 1349 1346 1344 1342 1341 1339 1337 1336 1335 1333 1332 1331 1330 1328 1326 1325 1323 1322 1320 1319 1318 1317 1315 1314 1313 1312 1310 1309 1308 1306 1305 1303 1302 1301 1299 1298 1297 1295 1294 1293 1291 1290 1288 1287 1286 1284 1283 1282 1281 1280 1279 1279 1278 1277 1276 1275 1274 1273 1273 1272 1271 1270 1269 1268 1268 1267 1266 1266 1265 1264 1263 1263 1263 1263 1264 1264
1366 1362 1359 1358 1357 1355 1353 1351 1349 1348 1347 1344 1341 1339 1338 1336 1335 1333 1332 1331 1329 1328 1326 1325 1323 1322 1320 1318 1317 1316 1315 1313 1312 1311 1310 1308 1307 1306 1304 1303 1302 1300 1299 1298 1296 1295 1293 1292 1291 1289 1288 1287 1285 1284 1283 1281 1280 1279 1278 1277 1277 1276 1275 1274 1273 1272 1271 1270 1269 1268 1267 1267 1266 1266 1265 1264 1263 1263 1262 1261 1261 1260 1260 1260 1260 1260
1363 1361 1358 1357 1354 1352 1350 1349 1348 1345 1343 1341 1338 1336 1335 1334 1333 1331 1329 1328 1327 1324 1323 1322 1320 1319 1318 1316 1314 1313 1312 1311 1309 1308 1307 1305 1304 1302 1301 1299 1298 1297 1296 1294 1293 1292 1290 1289 1288 1286 1285 1283 1282 1280 1279 1278 1277 1276 1275 1274 1273 1273 1272 1270 1270 1269 1268 1267 1266 1265 1264 1264 1264 1263 1262 1261 1260 1259 1259 1258 1257 1257 1257 1256 1256 1256
1360 1359 1357 1355 1353 1350 1348 1346 1345 1343 1340 1338 1335 1334 1333 1332 1330 1329 1327 1325 1323 1322 1320 1318 1318 1317 1316 1314 1313 1311 1309 1308 1307 1305 1303 1302 1300 1298 1297 1296 1295 1293 1292 1291 1290 1288 1287 1285 1284 1283 1282 1280 1278 1277 1276 1275 1273 1273 1272 1271 1270 1269 1268 1267 1267 1266 1264 1263 1263 1262 1262 1261 1261 1260 1259 1258 1258 1257 1256 1255 1254 1253 1253 1253 1253 1253
1358 1357 1356 1353 1350 1348 1347 1344 1342 1340 1338 1335 1333 1331 1330 1329 1328 1326 1324 1323 1321 1319 1317 1316 1315 1314 1313 1312 1310 1308 1307 1305 1303 1301 1299 1298 1296 1295 1294 1293 1292 1290 1289 1288 1286 1285 1284 1283 1281 1280 1278 1277 1275 1274 1273 1271 1270 1269 1268 1267 1266 1265 1264 1264 1263 1262 1261 1260 1259 1259 1259 1258 1258 1257 1256 1255 1254 1254 1253 1252 1251 1250 1250 1249 1249 1249
1355 1353 1353 1351 1348 1345 1343 1342 1340 1338 1336 1333 1331 1329 1328 1326 1325 1323 1322 1320 1318 1317 1316 1314 1312 1311 1310 1309 1307 1305 1303 1301 1299 1297 1296 1294 1293 1292 1291 1289 1288 1287 1286 1284 1283 1282 1281 1280 1278 1276 1275 1273 1272 1271 1269 1268 1267 1266 1265 1263 1263 1262 1261 1260 1260 1259 1258 1257 1256 1256 1256 1256 1255 1254 1253 1252 1251 1250 1250 1249 1249 1248 1247 1246 1246 1246
1353 1350 1348 1347 1345 1343 1340 1338 1338 1337 1335 1333 1331 1329 1326 1323 1321 1320 1319 1318 1317 1316 1314 1312 1309 1307 1306 1305 1303 1302 1300 1298 1296 1294 1293 1291 1290 1289 1288 1286 1285 1284 1283 1282 1281 1279 1278 1276 1274 1273 1271 1269 1268 1267 1266 1264 1263 1262 1261 1260 1259 1258 1258 1257 1256 1255 1254 1253 1253 1253 1253 1252 1251 1250 1249 1248 1248 1247 1247 1246 1246 1245 1244 1244 1243 1243
1352 1349 1345 1343 1343 1342 1339 1337 1335 1335 1335 1333 1332 1329 1327 1323 1320 1318 1316 1314 1313 1313 1313 1311 1308 1304 1302 1301 1300 1298 1297 1295 1293 1292 1290 1289 1288 1286 1285 1284 1283 1281 1280 1279 1278 1276 1274 1273 1271 1269 1267 1266 1264 1263 1262 1261 1260 1259 1258 1257 1256 1255 1254 1254 1253 1253 1252 1251 1250 1250 1249 1248 1248 1247 1246 1245 1244 1243 1243 1243 1243 1242 1242 1242 1241 1240
1348 1346 1345 1343 1341 1340 1339 1337 1335 1333 1333 1332 1330 1328 1326 1324 1321 1318 1314 1311 1310 1309 1308 1307 1305 1303 1300 1297 1296 1295 1294 1292 1289 1288 1287 1286 1285 1283 1283 1282 1280 1279 1278 1276 1274 1273 1271 1269 1267 1265 1263 1262 1261 1259 1258 1258 1256 1255 1255 1254 1253 1252 1252 1251 1250 1250 1249 1248 1247 1247 1246 1245 1244 1244 1243 1243 1242 1241 1240 1240 1240 1239 1239 1238 1238 1237
1346 1345 1344 1342 1340 1338 1337 1335 1333 1332 1331 1329 1327 1325 1323 1322 1321 1318 1315 1310 1308 1306 1304 1303 1301 1300 1298 1296 1294 1292 1291 1288 1286 1284 1283 1282 1282 1281 1280 1279 1277 1276 1274 1272 1270 1268 1267 1265 1263 1261 1260 1258 1257 1256 1255 1254 1253 1252 1252 1251 1250 1249 1248 1248 1247 1247 1246 1245 1244 1243 1243 1242 1242 1241 1241 1240 1239 1238 1238 1237 1237 1236 1235 1235 1234 1234
1346 1345 1343 1341 1339 1338 1336 1333 1331 1329 1328 1328 1326 1323 1320 1319 1318 1317 1313 1310 1307 1304 1303 1300 1298 1296 1295 1294 1293 1290 1288 1286 1284 1283 1281 1280 1279 1279 1278 1276 1274 1272 1270 1268 1266 1264 1262 1261 1259 1258 1256 1255 1253 1253 1252 1251 1250 1249 1248 1248 1247 1246 1246 1245 1244 1244 1243 1242 1241 1241 1241 1240 1239 1238 1238 1237 1236 1235 1234 1234 1233 1233 1232 1232 1231 1230
1345 1343 1342 1340 1338 1336 1334 1333 1331 1328 1327 1326 1324 1322 1319 1317 1315 1313 1311 1308 1305 1303 1301 1298 1295 1293 1291 1291 1290 1288 1286 1284 1282 1281 1279 1278 1278 1277 1276 1274 1271 1269 1267 1265 1262 1260 1259 1258 1256 1254 1253 1252 1250 1249 1248 1248 1247 1246 1245 1245 1244 1243 1243 1242 1242 1241 1240 1239 1239 1238 1238 1237 1236 1235 1234 1233 1233 1232 1231 1231 1230 1230 1229 1229 1228 1228
1344 1342 1340 1338 1336 1334 1333 1332 1330 1327 1325 1324 1322 1320 1317 1315 1313 1311 1309 1306 1303 1300 1299 1296 1293 1290 1288 1288 1287 1286 1285 1284 1282 1279 1277 1275 1274 1274 1274 1272 1268 1265 1263 1262 1259 1257 1256 1255 1253 1252 1250 1249 1248 1246 1246 1245 1244 1243 1243 1242 1242 1241 1240 1239 1238 1238 1237 1237 1236 1235 1234 1234 1233 1232 1231 1230 1230 1229 1228 1228 1228 1227 1227 1226 1226 1225
1343 1341 1339 1336 1334 1332 1331 1330 1328 1326 1323 1321 1320 1318 1316 1313 1311 1309 1307 1304 1301 1298 1296 1293 1290 1287 1285 1285 1286 1285 1284 1283 1280 1277 1274 1271 1270 1271 1272 1269 1266 1262 1260 1258 1257 1255 1253 1252 1251 1249 1248 1247 1245 1244 1244 1243 1242 1242 1241 1240 1239 1238 1237 1236 1236 1235 1234 1234 1233 1232 1232 1231 1230 1229 1228 1228 1227 1226 1226 1225 1225 1224 1224 1223 1223 1223
1341 1339 1338 1335 1333 1330 1329 1328 1327 1324 1322 1319 1317 1315 1313 1311 1309 1307 1305 1302 1299 1297 1294 1292 1288 1285 1282 1282 1283 1284 1284 1282 1278 1275 1272 1268 1266 1267 1268 1267 1263 1259 1257 1255 1254 1253 1251 1249 1248 1247 1246 1245 1243 1243 1242 1241 1240 1239 1238 1238 1237 1236 1235 1234 1233 1232 1231 1231 1230 1229 1228 1227 1226 1226 1225 1224 1223 1223 1222 1222 1221 1221 1221 1220 1220 1220
1339 1338 1336 1334 1331 1329 1327 1326 1324 1322 1320 1318 1315 1313 1311 1308 1307 1305 1303 1300 1297 1294 1292 1289 1287 1285 1282 1280 1280 1281 1283 1281 1277 1273 1270 1266 1263 1263 1264 1263 1260 1257 1254 1253 1251 1250 1248 1247 1246 1245 1244 1243 1242 1241 1240 1239 1238 1237 1236 1235 1234 1233 1232 1231 1230 1229 1228 1227 1226 1225 1224 1224 1223 1222 1221 1220 1220 1219 1219 1218 1218 1218 1218 1218 1218 1217
1337 1336 1335 1333 1330 1327 1325 1323 1322 1320 1318 1315 1313 1310 1308 1305 1303 1302 1299 1297 1295 1293 1290 1288 1286 1284 1282 1280 1278 1279 1280 1279 1276 1272 1268 1263 1260 1259 1261 1260 1258 1254 1252 1250 1248 1247 1246 1244 1244 1243 1242 1241 1239 1238 1237 1236 1235 1234 1233 1232 1231 1229 1228 1227 1226 1225 1224 1223 1222 1221 1221 1220 1219 1218 1218 1217 1216 1216 1216 1216 1215 1215 1215 1214 1214 1213
1335 1333 1333 1331 1328 1325 1323 1321 1319 1318 1316 1313 1311 1308 1305 1302 1300 1298 1296 1294 1293 1291 1290 1288 1285 1283 1281 1279 1278 1277 1278 1277 1274 1270 1265 1261 1258 1257 1257 1257 1254 1251 1248 1246 1245 1244 1243 1242 1242 1241 1240 1238 1237 1236 1235 1233 1232 1231 1230 1228 1227 1226 1224 1223 1222 1221 1220 1219 1218 1218 1218 1217 1216 1215 1214 1213 1213 1213 1213 1213 1212 1212 1211 1210 1210 1209
1333 1330 1329 1329 1327 1324 1320 1318 1316 1315 1313 1311 1309 1306 1303 1301 1298 1297 1295 1294 1292 1290 1288 1286 1284 1282 1280 1278 1276 1275 1275 1275 1273 1268 1263 1258 1255 1253 1254 1253 1251 1248 1245 1243 1243 1243 1242 1241 1240 1239 1238 1236 1235 1233 1232 1231 1230 1228 1226 1225 1223 1222 1221 1220 1219 1218 1217 1217 1216 1215 1214 1213 1212 1212 1211 1210 1210 1210 1209 1209 1208 1208 1207 1207 1206 1206
1331 1328 1327 1326 1325 1322 1319 1316 1314 1313 1312 1310 1308 1305 1303 1300 1298 1296 1294 1293 1290 1288 1286 1284 1282 1280 1279 1277 1274 1273 1273 1273 1271 1267 1263 1258 1253 1250 1251 1251 1249 1246 1244 1243 1242 1241 1241 1239 1238 1237 1235 1234 1233 1231 1230 1228 1227 1225 1223 1221 1220 1219 1218 1217 1216 1215 1214 1213 1213 1212 1211 1210 1208 1208 1207 1207 1206 1206 1205 1204 1204 1204 1203 1203 1203 1203
1330 1327 1325 1323 1322 1320 1318 1316 1313 1312 1310 1309 1307 1305 1303 1300 1298 1295 1293 1291 1288 1286 1284 1281 1279 1278 1276 1275 1273 1271 1271 1270 1268 1266 1262 1257 1251 1248 1249 1249 1248 1245 1243 1241 1241 1240 1238 1237 1235 1233 1232 1231 1230 1228 1226 1225 1223 1221 1220 1218 1217 1216 1215 1214 1213 1212 1211 1210 1209 1208 1207 1206 1205 1204 1203 1203 1202 1201 1201 1200 1200 1200 1200 1200 1199 1199
1328 1325 1323 1322 1320 1319 1317 1314 1312 1310 1308 1307 1305 1303 1300 1298 1296 1294 1292 1289 1287 1284 1282 1279 1277 1275 1273 1272 1271 1269 1268 1267 1266 1264 1260 1255 1250 1248 1248 1248 1246 1243 1240 1239 1239 1237 1235 1233 1232 1231 1229 1228 1226 1225 1223 1221 1220 1218 1217 1215 1214 1213 1212 1211 1210 1209 1208 1207 1206 1204 1203 1202 1201 1200 1199 1198 1198 1197 1197 1197 1196 1196 1196 1196 1196 1196
1325 1324 1322 1321 1319 1317 1315 1313 1310 1308 1306 1304 1302 1300 1298 1296 1294 1292 1290 1288 1285 1283 1280 1278 1275 1272 1270 1269 1268 1266 1265 1265 1264 1262 1258 1254 1250 1247 1247 1247 1245 1242 1238 1237 1236 1235 1233 1230 1228 1227 1226 1224 1223 1221 1219 1218 1217 1215 1214 1213 1211 1210 1209 1208 1208 1207 1205 1203 1202 1201 1199 1198 1198 1197 1196 1195 1194 1194 1193 1193 1193 1192 1192 1192 1192 1192
1324 1323 1320 1318 1317 1314 1313 1310 1308 1306 1305 1303 1301 1298 1296 1294 1292 1289 1287 1285 1283 1282 1279 1276 1273 1270 1268 1267 1265 1263 1262 1262 1261 1260 1257 1253 1249 1246 1245 1245 1243 1240 1236 1233 1233 1232 1230 1227 1225 1224 1223 1221 1219 1217 1216 1214 1213 1212 1211 1210 1209 1208 1207 1206 1205 1203 1202 1200 1198 1197 1196 1195 1194 1193 1193 1192 1191 1191 1190 1189 1189 1188 1188 1188 1188 1188
1322 1320 1318 1316 1314 1311 1309 1307 1305 1304 1302 1301 1299 1297 1295 1292 1290 1287 1285 1283 1282 1280 1278 1274 1271 1268 1266 1265 1263 1262 1260 1259 1258 1257 1255 1252 1248 1244 1243 1242 1241 1238 1235 1232 1230 1229 1228 1225 1223 1221 1219 1217 1215 1213 1212 1211 1210 1209 1208 1207 1206 1205 1204 1203 1201 1199 1198 1196 1195 1193 1193 1191 1191 1190 1189 1188 1188 1187 1186 1186 1185 1185 1184 1184 1184 1183
1319 1317 1315 1313 1310 1308 1306 1304 1303 1301 1299 1298 1296 1295 1293 1291 1288 1286 1283 1281 1280 1278 1276 1273 1270 1267 1264 1263 1261 1260 1258 1257 1256 1254 1253 1251 1247 1243 1241 1240 1239 1237 1233 1229 1227 1225 1225 1223 1220 1218 1216 1214 1212 1211 1210 1209 1208 1207 1206 1205 1203 1202 1201 1199 1197 1196 1194 1193 1191 1190 1189 1188 1187 1186 1185 1185 1184 1183 1183 1182 1182 1181 1181 1181 1180 1179
1316 1314 1312 1310 1308 1305 1303 1301 1299 1298 1296 1295 1293 1292 1291 1290 1287 1284 1282 1280 1278 1276 1274 1271 1269 1266 1263 1261 1259 1258 1256 1255 1253 1253 1252 1249 1245 1242 1240 1239 1237 1235 1232 1228 1224 1221 1221 1220 1218 1216 1213 1212 1210 1209 1208 1206 1205 1204 1203 1201 1200 1198 1197 1195 1193 1192 1191 1189 1188 1187 1186 1184 1183 1183 1182 1181 1180 1179 1178 1178 1178 1178 1178 1177 1176 1175
1313 1311 1308 1306 1304 1302 1300 1298 1296 1295 1293 1292 1291 1290 1288 1287 1285 1283 1280 1278 1277 1275 1272 1269 1268 1265 1263 1260 1257 1255 1253 1252 1252 1251 1250 1247 1243 1240 1238 1237 1235 1233 1231 1228 1223 1218 1216 1216 1216 1214 1212 1210 1208 1207 1206 1204 1203 1201 1199 1198 1196 1194 1193 1192 1190 1189 1188 1186 1185 1183 1182 1180 1179 1178 1177 1176 1175 1175 1174 1174 1174 1174 1174 1173 1172 1172
1309 1307 1305 1303 1301 1299 1298 1296 1294 1292 1291 1289 1288 1287 1286 1284 1283 1281 1279 1277 1275 1273 1271 1268 1266 1264 1262 1260 1257 1253 1250 1249 1249 1249 1248 1245 1241 1238 1237 1235 1233 1231 1230 1228 1224 1218 1213 1211 1211 1211 1210 1208 1206 1204 1203 1202 1200 1198 1197 1195 1193 1191 1190 1189 1188 1186 1184 1183 1181 1179 1177 1176 1174 1173 1173 1172 1171 1170 1170 1170 1171 1171 1170 1169 1169 1168
1307 1305 1303 1301 1299 1297 1295 1293 1292 1290 1288 1287 1285 1284 1283 1282 1280 1278 1277 1275 1273 1272 1269 1267 1264 1262 1261 1259 1257 1253 1249 1247 1246 1246 1246 1243 1239 1237 1235 1234 1231 1229 1228 1228 1225 1221 1215 1210 1207 1206 1206 1205 1203 1202 1201 1199 1198 1196 1194 1193 1191 1189 1188 1187 1185 1183 1180 1178 1176 1174 1173 1172 1170 1169 1168 1168 1167 1166 1166 1166 1167 1167 1167 1166 1165 1165
1305 1303 1301 1299 1297 1295 1293 1292 1290 1288 1287 1285 1283 1282 1281 1279 1278 1277 1275 1273 1271 1270 1268 1265 1263 1260 1258 1257 1254 1252 1249 1246 1245 1244 1244 1242 1238 1235 1233 1232 1230 1228 1226 1225 1223 1221 1217 1212 1207 1204 1203 1202 1201 1200 1198 1197 1196 1194 1193 1191 1189 1187 1185 1184 1182 1179 1177 1174 1173 1171 1170 1168 1167 1166 1165 1164 1163 1163 1163 1163 1163 1163 1163 1163 1162 1162
1303 1301 1299 1297 1295 1293 1291 1290 1288 1287 1285 1283 1282 1280 1279 1277 1276 1274 1272 1271 1269 1268 1266 1264 1261 1259 1256 1254 1252 1249 1247 1245 1243 1243 1242 1240 1237 1234 1232 1230 1228 1226 1224 1222 1220 1218 1216 1212 1208 1204 1201 1199 1198 1198 1197 1195 1194 1193 1191 1189 1187 1185 1183 1181 1179 1176 1174 1172 1170 1168 1167 1165 1164 1163 1161 1161 1160 1159 1159 1159 1159 1160 1160 1160 1159 1159
1301 1299 1297 1295 1293 1291 1289 1288 1286 1285 1283 1282 1280 1278 1277 1275 1273 1272 1270 1268 1267 1265 1263 1262 1260 1258 1255 1253 1250 1247 1245 1243 1241 1241 1239 1238 1235 1233 1230 1228 1226 1224 1222 1220 1218 1216 1213 1210 1207 1205 1202 1198 1196 1195 1195 1194 1193 1191 1189 1187 1185 1183 1180 1178 1176 1174 1171 1169 1168 1166 1164 1163 1161 1159 1158 1157 1157 1156 1156 1156 1156 1156 1156 1156 1156 1155
1299 1297 1296 1294 1292 1290 1288 1286 1285 1283 1281 1280 1278 1276 1275 1273 1271 1269 1268 1266 1264 1262 1261 1259 1257 1255 1254 1252 1249 1246 1243 1241 1239 1238 1237 1236 1234 1231 1229 1226 1224 1223 1221 1218 1216 1213 1211 1208 1205 1203 1202 1198 1195 1193 1192 1192 1191 1189 1187 1185 1183 1180 1178 1176 1174 1172 1169 1167 1165 1163 1162 1160 1158 1157 1155 1155 1154 1154 1153 1153 1153 1152 1152 1152 1152 1152
1298 1296 1294 1293 1291 1289 1287 1285 1283 1281 1279 1278 1276 1274 1272 1271 1269 1267 1265 1263 1261 1259 1258 1256 1254 1253 1251 1249 1248 1245 1242 1239 1238 1236 1234 1233 1232 1230 1228 1224 1223 1221 1219 1217 1214 1212 1210 1207 1204 1202 1200 1198 1196 1193 1190 1189 1188 1186 1184 1182 1180 1178 1175 1173 1172 1170 1168 1166 1163 1162 1160 1158 1156 1155 1154 1153 1153 1152 1151 1150 1149 1149 1148 1148 1148 1148
1298 1295 1293 1292 1290 1288 1286 1283 1282 1280 1278 1276 1274 1272 1270 1268 1266 1264 1263 1260 1258 1257 1255 1253 1251 1249 1248 1247 1245 1243 1240 1238 1236 1234 1232 1231 1230 1228 1226 1223 1220 1219 1218 1216 1213 1212 1209 1207 1204 1201 1199 1197 1194 1193 1190 1188 1186 1184 1182 1180 1178 1176 1173 1171 1169 1168 1166 1164 1162 1160 1158 1156 1155 1154 1153 1152 1151 1150 1149 1148 1147 1147 1146 1145 1144 1143
1296 1294 1292 1290 1288 1287 1284 1282 1280 1278 1276 1274 1272 1270 1268 1266 1264 1262 1260 1258 1257 1255 1253 1251 1249 1247 1245 1243 1242 1240 1238 1236 1234 1232 1230 1229 1228 1227 1224 1222 1219 1217 1215 1214 1213 1211 1209 1207 1204 1202 1199 1195 1193 1191 1189 1188 1186 1183 1181 1178 1175 1173 1171 1170 1168 1166 1165 1163 1161 1159 1157 1155 1154 1153 1152 1151 1150 1148 1147 1146 1145 1144 1144 1143 1142 1140
1295 1293 1291 1289 1287 1285 1283 1281 1279 1277 1275 1273 1270 1268 1266 1264 1262 1260 1258 1257 1255 1253 1251 1249 1247 1245 1243 1241 1239 1237 1235 1233 1232 1230 1228 1227 1226 1225 1223 1221 1218 1215 1214 1213 1212 1210 1208 1206 1203 1201 1198 1196 1193 1190 1188 1186 1185 1183 1181 1178 1174 1171 1169 1168 1167 1165 1163 1162 1160 1158 1156 1154 1153 1153 1151 1150 1149 1148 1146 1145 1144 1143 1142 1141 1139 1138
1294 1292 1289 1287 1285 1283 1282 1279 1277 1275 1273 1271 1269 1267 1265 1263 1260 1258 1256 1254 1253 1251 1249 1247 1244 1242 1240 1238 1236 1235 1233 1231 1229 1228 1227 1226 1224 1223 1222 1219 1217 1214 1213 1212 1210 1208 1206 1204 1202 1199 1197 1195 1193 1190 1188 1186 1184 1183 1182 1179 1175 1171 1168 1167 1166 1164 1163 1161 1159 1158 1156 1155 1153 1152 1151 1149 1148 1146 1145 1143 1142 1141 1140 1139 1138 1137
1293 1290 1288 1286 1283 1282 1280 1278 1276 1273 1272 1270 1268 1265 1263 1262 1259 1257 1255 1253 1250 1248 1247 1245 1243 1240 1237 1235 1233 1232 1231 1229 1228 1226 1225 1224 1223 1222 1220 1218 1216 1215 1213 1210 1208 1205 1203 1202 1200 1198 1196 1194 1192 1190 1187 1185 1184 1183 1181 1179 1175 1172 1168 1166 1165 1164 1162 1161 1159 1158 1156 1155 1153 1152 1150 1149 1147 1145 1144 1143 1141 1140 1139 1138 1137 1136
1291 1289 1287 1284 1282 1280 1278 1276 1274 1272 1270 1268 1266 1264 1262 1260 1258 1256 1254 1252 1249 1247 1245 1243 1241 1238 1235 1233 1230 1229 1228 1227 1226 1225 1224 1223 1222 1220 1218 1217 1215 1214 1211 1208 1205 1203 1200 1199 1198 1196 1194 1193 1192 1190 1187 1185 1183 1181 1180 1178 1176 1173 1169 1166 1164 1163 1162 1160 1159 1158 1157 1155 1154 1152 1150 1149 1147 1145 1143 1142 1141 1139 1138 1137 1136 1136
1290 1288 1285 1283 1281 1278 1276 1274 1273 1271 1269 1267 1264 1263 1260 1259 1257 1255 1253 1250 1248 1246 1243 1241 1239 1237 1234 1232 1229 1227 1226 1224 1224 1223 1223 1222 1220 1218 1217 1215 1213 1211 1209 1206 1203 1200 1198 1197 1196 1194 1193 1193 1191 1189 1187 1185 1183 1181 1179 1177 1176 1174 1172 1168 1166 1164 1162 1161 1159 1158 1157 1156 1154 1152 1150 1149 1147 1145 1143 1142 1140 1139 1138 1137 1136 1136
1288 1286 1284 1282 1279 1277 1275 1273 1271 1269 1267 1265 1263 1261 1259 1257 1256 1254 1252 1249 1247 1244 1242 1240 1238 1236 1233 1231 1228 1226 1224 1223 1222 1222 1221 1220 1218 1217 1215 1213 1211 1208 1206 1203 1201 1199 1197 1196 1194 1193 1193 1192 1191 1189 1188 1185 1183 1180 1178 1177 1175 1173 1172 1169 1167 1165 1163 1162 1160 1159 1158 1156 1154 1153 1151 1149 1147 1145 1143 1142 1140 1139 1138 1137 1136 1136
1288 1285 1283 1280 1278 1276 1274 1272 1270 1268 1266 1264 1262 1259 1258 1256 1254 1252 1250 1248 1246 1243 1241 1239 1238 1236 1233 1230 1228 1225 1223 1222 1221 1220 1219 1218 1216 1214 1213 1211 1209 1206 1203 1201 1199 1198 1197 1195 1194 1193 1192 1191 1190 1189 1187 1186 1183 1181 1178 1177 1175 1173 1171 1169 1168 1166 1164 1163 1161 1160 1158 1156 1155 1153 1151 1150 1148 1146 1144 1142 1141 1139 1138 1137 1136 1136
1286 1284 1282 1279 1277 1275 1273 1270 1268 1267 1264 1262 1260 1258 1256 1254 1253 1251 1249 1247 1245 1243 1240 1238 1236 1234 1232 1229 1227 1225 1223 1222 1220 1219 1217 1215 1214 1212 1211 1209 1207 1204 1202 1200 1198 1197 1196 1195 1194 1193 1193 1191 1190 1188 1187 1186 1184 1182 1179 1177 1175 1173 1171 1170 1168 1167 1166 1164 1163 1161 1159 1157 1155 1154 1153 1151 1149 1147 1145 1143 1142 1140 1139 1138 1137 1136
1285 1283 1280 1278 1276 1273 1271 1269 1268 1265 1263 1261 1258 1257 1255 1253 1252 1249 1247 1245 1243 1241 1239 1237 1235 1233 1231 1228 1227 1225 1224 1222 1221 1218 1216 1214 1213 1211 1209 1207 1205 1203 1201 1199 1198 1197 1196 1195 1194 1193 1193 1192 1190 1188 1187 1185 1184 1182 1180 1178 1176 1174 1173 1171 1170 1168 1167 1165 1164 1162 1160 1158 1157 1155 1154 1152 1150 1148 1147 1145 1143 1142 1140 1139 1138 1136
1284 1282 1279 1277 1275 1272 1270 1268 1266 1264 1262 1259 1257 1255 1253 1252 1250 1249 1247 1244 1242 1240 1238 1236 1234 1232 1229 1228 1226 1225 1224 1222 1220 1218 1216 1214 1212 1210 1208 1206 1204 1202 1201 1199 1198 1197 1196 1195 1194 1194 1193 1192 1191 1189 1188 1186 1184 1182 1180 1179 1177 1176 1174 1173 1171 1170 1168 1167 1165 1163 1162 1160 1159 1157 1156 1154 1152 1150 1149 1147 1145 1143 1142 1141 1139 1138
1283 1280 1278 1276 1274 1272 1269 1267 1265 1263 1261 1258 1256 1253 1251 1250 1248 1247 1245 1243 1241 1239 1238 1235 1233 1231 1229 1227 1226 1225 1223 1222 1219 1217 1215 1214 1212 1210 1208 1206 1204 1202 1200 1199 1198 1197 1196 1195 1195 1194 1193 1192 1192 1190 1188 1186 1184 1182 1181 1180 1178 1177 1176 1174 1173 1171 1170 1168 1167 1165 1163 1162 1160 1158 1157 1156 1154 1153 1151 1149 1148 1146 1144 1143 1141 1140
1281 1279 1277 1275 1273 1271 1268 1266 1264 1262 1260 1257 1255 1253 1251 1248 1247 1245 1243 1242 1240 1238 1236 1234 1233 1231 1229 1228 1226 1224 1223 1221 1219 1217 1215 1214 1212 1211 1209 1207 1205 1203 1201 1200 1198 1197 1196 1196 1195 1194 1193 1193 1192 1191 1189 1187 1185 1183 1182 1181 1180 1179 1177 1176 1174 1173 1171 1170 1168 1167 1165 1163 1162 1160 1159 1158 1156 1155 1153 1152 1150 1149 1147 1146 1144 1142